Regional Weather Roundup
Issued by NWS Wilmington, NC

Home | Current Version | Previous Version | Text Only | Print | Product List | Glossary On
Versions: 1 2 3 4 5 6 7 8 9 10 11 12 13 14 15 16 17 18 19 20 21 22 23 24 25 26 27
000
ASUS42 KILM 261213
RWRILM
RWRILM
REGIONAL HOURLY WEATHER ROUNDUP
NATIONAL WEATHER SERVICE WILMINGTON NC
800 AM EDT THU MAY 26 2016

NOTE: "FAIR" INDICATES FEW OR NO CLOUDS BELOW 12,000 FEET WITH NO
SIGNIFICANT WEATHER AND/OR OBSTRUCTIONS TO VISIBILITY.

...............WFO WILMINGTON COUNTY WARNING AREA...............

......COASTAL NC AND SC COUNTIES......

CITY           SKY/WX    TMP DP  RH WIND       PRES   REMARKS
WILMINGTON     CLOUDY    74  69  85 SW5       30.22R
N MYRTLE BEACH PTSUNNY   75  70  84 SW9       30.22R
MYRTLE BEACH   SUNNY     75  64  69 SW7       30.23R

......INLAND NC AND SC COUNTIES.......

CITY           SKY/WX    TMP DP  RH WIND       PRES   REMARKS
LUMBERTON      SUNNY     71  66  84 SW5       30.21R
ELIZABETHTOWN  SUNNY     69  67  94 S5        30.22R
WHITEVILLE     MOSUNNY   70  67  90 S3        30.21S
FLORENCE       NOT AVBL
DARLINGTON     SUNNY     69  66  90 SW8       30.21R
KINGSTREE      FAIR      68  64  88 CALM      30.22R
HARTSVILLE     FAIR      66  63  88 W5        30.21R
BENNETTSVILLE  FAIR      70  68  94 CALM      30.21R
CONWAY         FAIR      68  68 100 CALM      30.22R FOG
GEORGETOWN     FAIR      70  68  94 SW3       30.23R
MARION         FAIR      68  64  88 S5        30.22R

....................REST OF NORTH CAROLINA......................

.........EASTERN NC.........

CITY           SKY/WX    TMP DP  RH WIND       PRES   REMARKS
CAPE HATTERAS  SUNNY     72  66  81 SW5       30.23S
JACKSONVILLE   CLOUDY    71  68  90 SW7       30.23R
MOREHEAD CITY  SUNNY     75  67  76 SW9       30.22S
KENANSVILLE    PTSUNNY   70  65  84 CALM      30.23S
NEW BERN       MOSUNNY   73  68  84 SW7       30.23S
ELIZABETH CITY SUNNY     72  65  78 SW12      30.20S

.........CENTRAL NC.........

CITY           SKY/WX    TMP DP  RH WIND       PRES   REMARKS
RALEIGH DURHAM MOSUNNY   69  62  78 SW6       30.20R
ROCKY MOUNT    MOSUNNY   68  65  90 S8        30.20R
ROANOKE RAPIDS NOT AVBL
FAYETTEVILLE   MOSUNNY   71  65  81 SW8       30.20R
HOFFMAN        MOSUNNY   69  63  81 SW6       30.20R

.........WESTERN NC.........

CITY           SKY/WX    TMP DP  RH WIND       PRES   REMARKS
CHARLOTTE      MOSUNNY   69  61  75 S6        30.21R
GREENSBORO     CLOUDY    67  61  81 SW6       30.19R
HICKORY        NOT AVBL
BOONE          NOT AVBL
ASHEVILLE      NOT AVBL

.....................REST OF SOUTH CAROLINA.....................

.........EASTERN SC.........

CITY           SKY/WX    TMP DP  RH WIND       PRES   REMARKS
CHARLESTON     MOSUNNY   74  68  81 SW5       30.22R
BEAUFORT MCAS  MOSUNNY   74  70  87 CALM      30.21R
HILTON HEAD    SUNNY     77  70  78 S3        30.22R

.........CENTRAL SC.........

CITY           SKY/WX    TMP DP  RH WIND       PRES   REMARKS
COLUMBIA       SUNNY     71  62  73 W3        30.20R
ORANGEBURG     MOSUNNY   67  64  90 CALM      30.21R
SUMTER SHAW    NOT AVBL

.........WESTERN SC.........

CITY           SKY/WX    TMP DP  RH WIND       PRES   REMARKS
GREENVILLE     NOT AVBL
ROCK HILL      SUNNY     67  61  81 S6        30.21R
ANDERSON       MOSUNNY   67  61  81 CALM      30.20R
CLEMSON        NOT AVBL
GREENWOOD      MOSUNNY   70  59  68 S5        30.22R


...................COASTAL AND OFFSHORE REPORTS..................

................LOCAL PIERS AND NC RESERVE................


STATION/POSITION TIME  SKY/WX   TEMP    WIND        PRES    VSBY
                                AIR SEA DIR/SP/G
                 (UTC)          (F)     (DEG/KT/KT) (MB)    (MI)
JOHNY MRCER PIER 1100            73 73  210/  4/  4 1022.2R
NC RESRV MASNBRO NOT AVBL
OCEAN CREST PIER NOT AVBL
SPRINGMAID  PIER 1100            72 73  200/  5/  6 1022.5R


................COASTAL AND OFFSHORE BUOYS................


STATION/POSITION TIME  SKY/WX   TEMP    WIND        PRES    VSBY
                                AIR SEA DIR/SP/G
                 (UTC)          (F)     (DEG/KT/KT) (MB)    (MI)
DIMNDSHOAL 41025 1150            71 68  250/  4/  4 1023.8R
WVE H/P(F/S)=  2/ 7 SWL H/P/D(F/S/D)=  2/150/ 7

CAPE LOOKOUT     1200            74     230/  6/  7 1023.2S
ONSLOW BAY 41036 NOT AVBL
ONSLOW BAY 41064 1108            75 73  240/  6/  8 1023.7R
ONSLOW BAY 41159 1155               74                N/A
WVE H/P(F/S)=  2/ 8

5SE WRITBC 41038 1108            73 72  230/  4/  6 1023.9R
MASNBO INL 41110 1106               72                N/A
WVE H/P(F/S)=  2/ 8

WILM HARBR 41108 NOT AVBL
27SE WRITB 41037 1108            75 73  210/  4/  8 1023.2R
FRYING PAN 41013 1100            77 76  180/  8/ 10 1022.9R
SUNST NRSH 41024 1108            74 73  220/  6/  8 1022.6R
CAPRS NRSH 41029 1108            76 75  200/  8/ 10 1022.6R
EDISTO     41004 1150            77 76  170/  6/  8 1023.0R
WVE H/P(F/S)=  2/ 9 SWL H/P/D(F/S/D)=  2/ 9



..........OFFSHORE BUOYS BEYOND 100 NM OFFSHORE...........
.....IN A TRIANGLE---HAT TO BERMUDA TO BAHAMAS TO HAT.....


STATION/POSITION TIME  SKY/WX   TEMP    WIND        PRES    VSBY
                                AIR SEA DIR/SP/G
                 (UTC)          (F)     (DEG/KT/KT) (MB)    (MI)
150E HAT   41001 NOT AVBL
W BERMUDA  41048 1150            74 75   50/ 16/ 17 1022.4R
WVE H/P(F/S)=  4/ 8 SWL H/P/D(F/S/D)=  2/110/ 8

ATLANTIC S 41049 1150            78 78  110/ 12/ 14 1021.1R
WVE H/P(F/S)=  4/ 8 SWL H/P/D(F/S/D)=  3/120/ 8

E BAHAMAS  41046 1200            79 81  170/ 14/ 16 1016.8R
NE BAHAMAS 41047 1200            76 79   60/ 21/ 27 1017.5F
120E CANVRL41010 1120            76 78   70/  8/ 10 1021.1R

END




USA.gov is the U.S. government's official web portal to all federal, state and local government web resources and services.